"Timestamp","TZ","WindDir_Mean (deg)","WindSpd_Mean (km/h)","WindSpd_Min (km/h)","WindSpd_Max (km/h)","Temp_Mean (deg)","RH_Mean (%)","MSLP_Mean (hPa)","Rain_Acc (mm)","Rain_Intensity (mm/h)","Hail_Acc (hits/cm2)","Hail_Intensity (hits/cm2hr)","Solar_Mean (W/m2)"
2020/05/20 00:00:00.010,n,180,1.08,0.72,1.44,17.6,76.6,1024.32,0,0,0,0,0.032196
2020/05/20 00:01:00.000,n,286,2.88,2.52,2.88,17.6,76.7,1024.22,0,0,0,0,0.033951
2020/05/20 00:02:00.000,n,260,2.52,1.8,2.88,17.6,76.9,1024.22,0,0,0,0,0.032196
2020/05/20 00:03:00.002,n,174,2.52,1.44,3.96,17.6,76.9,1024.22,0,0,0,0,0.028725
2020/05/20 00:04:00.000,n,180,4.68,4.32,5.76,17.6,77,1024.12,0,0,0,0,0.027885
2020/05/20 00:05:00.000,n,168,4.32,2.88,5.76,17.6,77.2,1024.12,0,0,0,0,0.026093
2020/05/20 00:06:00.009,n,161,2.88,2.16,3.24,17.6,77.3,1024.02,0,0,0,0,0.031319
2020/05/20 00:07:00.007,n,143,3.24,3.24,3.6,17.6,77.3,1024.02,0,0,0,0,0.032196
2020/05/20 00:08:00.003,n,176,2.52,1.8,2.88,17.6,77.4,1024.02,0,0,0,0,0.029602
2020/05/20 00:09:00.001,n,192,5.4,4.68,5.76,17.6,77.5,1023.92,0,0,0,0,0.029602
2020/05/20 00:10:00.000,n,160,6.84,6.84,7.2,17.5,77.7,1023.82,0,0,0,0,0.031319
2020/05/20 00:11:00.000,n,161,4.32,3.24,5.76,17.5,77.7,1023.82,0,0,0,0,0.028725
2020/05/20 00:12:00.000,n,183,5.76,5.4,6.48,17.5,77.8,1023.72,0,0,0,0,0.023537
2020/05/20 00:13:00.006,n,167,2.16,1.8,2.52,17.5,78,1023.72,0,0,0,0,0.031319
2020/05/20 00:14:00.004,n,149,2.52,2.16,3.24,17.5,78,1023.72,0,0,0,0,0.02697
2020/05/20 00:15:00.000,n,179,2.16,1.44,2.88,17.5,78.1,1023.72,0,0,0,0,0.026093
2020/05/20 00:16:00.000,n,190,3.96,3.6,4.68,17.5,78.2,1023.72,0,0,0,0,0.027885
2020/05/20 00:17:00.011,n,167,4.68,3.6,5.76,17.5,78.3,1023.72,0,0,0,0,0.027885
2020/05/20 00:18:00.010,n,178,3.96,3.96,4.32,17.5,78.4,1023.72,0,0,0,0,0.026093
2020/05/20 00:19:00.000,n,243,1.8,1.44,2.52,17.5,78.4,1023.62,0,0,0,0,0.025253
2020/05/20 00:20:00.000,n,182,5.04,4.32,5.76,17.5,78.4,1023.62,0,0,0,0,0.025253
2020/05/20 00:21:00.001,n,162,1.8,1.44,2.16,17.5,78.4,1023.52,0,0,0,0,0.024376
2020/05/20 00:22:00.000,n,160,3.96,3.6,4.32,17.5,78.5,1023.52,0,0,0,0,0.02697
2020/05/20 00:23:00.000,n,165,3.24,2.52,3.96,17.4,78.5,1023.52,0,0,0,0,0.028725
2020/05/20 00:24:00.009,n,172,3.24,2.88,3.24,17.4,78.6,1023.42,0,0,0,0,0.028725
2020/05/20 00:25:00.006,n,149,4.32,3.96,4.32,17.4,78.6,1023.32,0,0,0,0,0.024376
2020/05/20 00:26:00.004,n,168,6.12,5.76,6.84,17.4,78.7,1023.32,0,0,0,0,0.026093
2020/05/20 00:27:00.001,n,178,4.68,3.6,5.4,17.4,78.7,1023.32,0,0,0,0,0.021744
2020/05/20 00:28:00.000,n,175,3.6,3.24,4.32,17.4,78.8,1023.32,0,0,0,0,0.026093
2020/05/20 00:29:00.000,n,139,0.72,0.36,1.44,17.4,78.8,1023.32,0,0,0,0,0.02697
2020/05/20 00:30:00.000,n,142,1.8,1.08,2.16,17.4,78.8,1023.32,0,0,0,0,0.022621
2020/05/20 00:31:00.006,n,163,1.44,0.72,2.52,17.4,78.9,1023.22,0,0,0,0,0.021744
2020/05/20 00:32:00.005,n,177,4.68,4.32,5.04,17.4,78.9,1023.22,0,0,0,0,0.023537
2020/05/20 00:33:00.000,n,193,2.52,2.16,2.88,17.4,79,1023.12,0,0,0,0,0.022621
2020/05/20 00:34:00.000,n,214,1.8,1.44,2.16,17.4,79,1023.12,0,0,0,0,0.02697
2020/05/20 00:35:00.012,n,211,2.52,2.16,2.88,17.4,79,1023.12,0,0,0,0,0.030479
2020/05/20 00:36:00.009,n,219,1.08,0.72,1.08,17.4,79,1023.02,0,0,0,0,0.022621
2020/05/20 00:37:00.000,n,201,3.24,2.52,3.6,17.3,79,1023.02,0,0,0,0,0.024376
2020/05/20 00:38:00.002,n,195,2.16,1.8,2.52,17.3,79.1,1023.02,0,0,0,0,0.025215
2020/05/20 00:39:00.000,n,214,1.08,0.72,1.44,17.3,79.1,1023.02,0,0,0,0,0.027847
2020/05/20 00:40:00.000,n,270,1.44,1.44,2.16,17.3,79.1,1023.02,0,0,0,0,0.030441
2020/05/20 00:41:00.000,n,207,1.08,1.08,1.44,17.3,79.2,1023.02,0,0,0,0,0.027008
2020/05/20 00:42:00.008,n,224,1.44,1.08,1.8,17.3,79.2,1023.02,0,0,0,0,0.029602
2020/05/20 00:43:00.005,n,254,1.8,0.72,2.16,17.3,79.2,1022.92,0,0,0,0,0.031357
2020/05/20 00:44:00.002,n,237,1.8,1.44,1.8,17.3,79.3,1022.92,0,0,0,0,0.029602
2020/05/20 00:45:00.015,n,268,2.88,2.52,3.24,17.3,79.5,1022.92,0,0,0,0,0.027008
2020/05/20 00:46:00.000,n,249,2.16,2.16,2.52,17.3,79.5,1022.82,0,0,0,0,0.028725
2020/05/20 00:47:00.000,n,256,1.8,1.44,2.16,17.3,79.4,1022.82,0,0,0,0,0.024376
2020/05/20 00:48:00.000,n,281,1.44,1.08,2.16,17.3,79.4,1022.82,0,0,0,0,0.031357
2020/05/20 00:49:00.005,n,294,1.08,0.36,1.44,17.2,79.5,1022.72,0,0,0,0,0.030441
2020/05/20 00:50:00.002,n,108,0.72,0.36,0.72,17.2,79.6,1022.72,0,0,0,0,0.024376
2020/05/20 00:51:00.000,n,114,1.08,0.72,1.8,17.2,79.6,1022.52,0,0,0,0,0.029602
2020/05/20 00:52:00.000,n,140,1.8,1.8,2.16,17.2,79.7,1022.42,0,0,0,0,0.027847
2020/05/20 00:53:00.010,n,157,3.24,3.24,3.24,17.2,79.8,1022.32,0,0,0,0,0.027847
2020/05/20 00:54:00.007,n,146,2.88,2.16,3.24,17.2,79.7,1022.22,0,0,0,0,0.024376
2020/05/20 00:55:00.000,n,122,2.16,1.8,2.52,17.2,79.8,1022.22,0,0,0,0,0.024376
2020/05/20 00:56:00.000,n,142,3.6,3.6,3.96,17.2,79.8,1022.22,0,0,0,0,0.028725
2020/05/20 00:57:00.000,n,144,0.72,0.36,1.08,17.1,79.8,1022.22,0,0,0,0,0.023499
2020/05/20 00:58:00.000,n,173,2.52,1.8,2.88,17.1,79.9,1022.22,0,0,0,0,0.023499
2020/05/20 00:59:00.008,n,232,2.52,2.16,2.88,17.1,80,1022.32,0,0,0,0,0.021782
2020/05/20 01:00:00.005,n,185,5.04,4.68,5.04,17.1,80.2,1022.42,0,0,0,0,0.025215
2020/05/20 01:01:00.002,n,232,1.8,1.44,2.16,17.1,80.1,1022.52,0,0,0,0,0.024376
2020/05/20 01:02:00.000,n,174,2.52,2.16,3.6,17.1,80.3,1022.52,0,0,0,0,0.021782
2020/05/20 01:03:00.012,n,211,3.24,3.24,3.6,17.1,80.3,1022.52,0,0,0,0,0.020866
2020/05/20 01:04:00.000,n,145,1.44,1.08,1.8,17.1,80.3,1022.52,0,0,0,0,0.023499
2020/05/20 01:05:00.000,n,184,4.32,3.96,4.68,17.1,80.4,1022.62,0,0,0,0,0.020866
2020/05/20 01:06:00.003,n,215,3.24,3.24,3.96,17.1,80.4,1022.62,0,0,0,0,0.021782
2020/05/20 01:07:00.001,n,214,6.12,5.76,6.84,17.1,80.4,1022.62,0,0,0,0,0.020027
2020/05/20 01:08:00.000,n,237,1.8,1.44,2.16,17.1,80.4,1022.62,0,0,0,0,0.023499
2020/05/20 01:09:00.000,n,181,0.36,0.36,0.36,17.1,80.3,1022.62,0,0,0,0,0.01915
2020/05/20 01:10:00.009,n,226,1.44,1.44,1.44,17.1,80.3,1022.62,0,0,0,0,0.016518
2020/05/20 01:11:00.006,n,202,0.72,0.36,1.08,17.1,80.3,1022.52,0,0,0,0,0.020027
2020/05/20 01:12:00.003,n,201,2.16,1.8,2.52,17.1,80.8,1022.52,0,0,0,0,0.021782
2020/05/20 01:13:00.000,n,177,1.8,1.44,1.8,17.1,80.6,1022.52,0,0,0,0,0.018272
2020/05/20 01:14:00.000,n,249,1.8,1.08,2.16,17.1,80.6,1022.52,0,0,0,0,0.029602
2020/05/20 01:15:00.000,n,242,1.08,0.72,1.08,17.1,80.6,1022.52,0,0,0,0,0.030479
2020/05/20 01:16:00.003,n,302,2.16,0.72,2.88,17.1,81.3,1022.52,0,0,0,0,0.029602
2020/05/20 01:17:00.001,n,259,3.6,3.24,3.96,17.1,80.9,1022.62,0,0,0,0,0.034828
2020/05/20 01:18:00.000,n,259,2.88,2.52,3.24,17.1,80.7,1022.62,0,0,0,0,0.028725
2020/05/20 01:19:00.011,n,266,5.04,4.68,5.04,17.1,80.7,1022.72,0,0,0,0,0.034828
2020/05/20 01:20:00.008,n,243,2.88,2.52,3.24,17.1,80.7,1022.72,0,0,0,0,0.028725
2020/05/20 01:21:00.005,n,252,3.24,2.88,3.24,17.1,80.9,1022.72,0,0,0,0,0.030479
2020/05/20 01:22:00.000,n,266,6.12,5.4,6.84,17.1,80.8,1022.72,0,0,0,0,0.031357
2020/05/20 01:23:00.000,n,332,3.24,2.52,3.96,17.1,81.3,1022.72,0,0,0,0,0.032234
2020/05/20 01:24:00.000,n,248,2.88,2.52,3.6,17.1,81.8,1022.72,0,0,0,0,0.032234
2020/05/20 01:25:00.000,n,247,6.12,5.4,6.84,17.1,81,1022.72,0,0,0,0,0.031357
2020/05/20 01:26:00.007,n,266,5.4,4.68,6.48,17.1,81.1,1022.72,0,0,0,0,0.033951
2020/05/20 01:27:00.004,n,225,2.88,2.88,3.24,17.1,80.9,1022.62,0,0,0,0,0.031357
2020/05/20 01:28:00.002,n,231,1.8,1.44,2.16,17.1,81.2,1022.62,0,0,0,0,0.031357
2020/05/20 01:29:00.000,n,260,4.32,3.24,5.04,17,80.8,1022.62,0,0,0,0,0.035706
2020/05/20 01:30:00.013,n,263,5.04,4.32,5.76,17,80.9,1022.62,0,0,0,0,0.029602
2020/05/20 01:31:00.000,n,253,3.24,2.88,3.24,17,80.9,1022.62,0,0,0,0,0.031357
2020/05/20 01:32:00.000,n,261,2.88,2.52,3.6,17,81.4,1022.72,0,0,0,0,0.031357
2020/05/20 01:33:00.004,n,234,3.6,3.24,3.6,17,81.3,1022.72,0,0,0,0,0.030479
2020/05/20 01:34:00.000,n,276,3.96,3.24,4.32,17,81.4,1022.82,0,0,0,0,0.033073
2020/05/20 01:35:00.000,n,252,2.16,1.44,2.52,17,81.2,1022.82,0,0,0,0,0.032234
2020/05/20 01:36:00.000,n,251,3.24,2.88,3.6,17,81.2,1022.92,0,0,0,0,0.027847
2020/05/20 01:37:00.008,n,249,3.24,2.88,3.6,17,81.1,1022.82,0,0,0,0,0.027008
2020/05/20 01:38:00.005,n,247,1.8,1.08,2.52,16.9,81.1,1022.82,0,0,0,0,0.033073
2020/05/20 01:39:00.002,n,241,3.6,3.24,3.96,16.9,81.1,1022.72,0,0,0,0,0.029602
2020/05/20 01:40:00.000,n,247,1.08,0.72,1.8,16.9,81.1,1022.72,0,0,0,0,0.028725
2020/05/20 01:41:00.000,n,187,1.08,1.08,1.08,16.9,81.2,1022.52,0,0,0,0,0.033073
2020/05/20 01:42:00.000,n,299,0.72,0.72,1.08,16.8,81.2,1022.42,0,0,0,0,0.028725
2020/05/20 01:43:00.006,n,300,1.08,0.72,1.44,16.8,81.2,1022.42,0,0,0,0,0.030479
2020/05/20 01:44:00.003,n,249,2.88,2.52,3.24,16.8,81.4,1022.42,0,0,0,0,0.031357
2020/05/20 01:45:00.000,n,212,1.44,1.44,1.44,16.8,81.3,1022.42,0,0,0,0,0.030479
2020/05/20 01:46:00.000,n,254,3.6,3.24,3.96,16.8,81.3,1022.42,0,0,0,0,0.026131
2020/05/20 01:47:00.011,n,244,3.96,3.24,4.68,16.8,81.3,1022.42,0,0,0,0,0.028725
2020/05/20 01:48:00.008,n,264,3.6,3.24,3.96,16.700002,81.3,1022.52,0,0,0,0,0.034828
2020/05/20 01:49:00.000,n,272,4.68,4.68,5.4,16.700002,81.4,1022.52,0,0,0,0,0.024376
2020/05/20 01:50:00.002,n,254,9.36,9,10.08,16.700002,81.3,1022.52,0,0,0,0,0.028725
2020/05/20 01:51:00.000,n,241,4.68,4.32,5.04,16.700002,81.5,1022.52,0,0,0,0,0.027847
2020/05/20 01:52:00.000,n,261,5.76,5.76,6.48,16.700002,81.5,1022.52,0,0,0,0,0.026131
2020/05/20 01:53:00.000,n,265,5.4,3.24,6.12,16.6,81.6,1022.42,0,0,0,0,0.030479
2020/05/20 01:54:00.008,n,242,7.56,6.84,8.28,16.6,81.6,1022.42,0,0,0,0,0.025253
2020/05/20 01:55:00.005,n,248,6.12,5.04,7.2,16.6,81.7,1022.42,0,0,0,0,0.029564
2020/05/20 01:56:00.000,n,251,3.6,2.88,4.32,16.6,81.9,1022.52,0,0,0,0,0.033073
2020/05/20 01:57:00.013,n,266,5.76,5.04,6.48,16.6,82,1022.52,0,0,0,0,0.032196
2020/05/20 01:58:00.000,n,283,3.24,2.52,4.68,16.6,82,1022.52,0,0,0,0,0.033913
2020/05/20 01:59:00.000,n,258,3.6,2.88,3.96,16.5,82.3,1022.42,0,0,0,0,0.03479
2020/05/20 02:00:00.004,n,264,3.96,3.24,4.32,16.5,82.3,1022.42,0,0,0,0,0.033913
2020/05/20 02:01:00.000,n,254,6.48,5.76,7.56,16.5,82.3,1022.42,0,0,0,0,0.035706
2020/05/20 02:02:00.000,n,260,5.04,4.32,5.76,16.5,82.2,1022.52,0,0,0,0,0.033073
2020/05/20 02:03:00.000,n,335,1.44,0.72,2.88,16.5,82.3,1022.52,0,0,0,0,0.032196
2020/05/20 02:04:00.010,n,234,2.16,1.8,2.52,16.5,82.6,1022.52,0,0,0,0,0.028725
2020/05/20 02:05:00.007,n,257,1.8,1.08,2.16,16.5,82.6,1022.42,0,0,0,0,0.033073
2020/05/20 02:06:00.005,n,335,0.36,0,0.72,16.5,82.6,1022.42,0,0,0,0,0.027847
2020/05/20 02:07:00.002,n,291,3.24,3.24,3.6,16.5,82.5,1022.42,0,0,0,0,0.031319
2020/05/20 02:08:00.000,n,257,5.04,4.68,5.4,16.5,82.5,1022.32,0,0,0,0,0.031319
2020/05/20 02:09:00.000,n,226,0.72,0.36,0.72,16.4,82.5,1022.32,0,0,0,0,0.026093
2020/05/20 02:10:00.000,n,292,1.44,0.72,2.52,16.4,83.2,1022.32,0,0,0,0,0.02697
2020/05/20 02:11:00.006,n,255,4.68,4.32,5.4,16.5,82.8,1022.32,0,0,0,0,0.02697
2020/05/20 02:12:00.004,n,280,3.24,3.24,3.96,16.5,82.7,1022.32,0,0,0,0,0.027847
2020/05/20 02:13:00.000,n,250,3.6,2.88,3.96,16.4,82.7,1022.42,0,0,0,0,0.024338
2020/05/20 02:14:00.013,n,256,3.6,3.6,4.32,16.4,82.7,1022.42,0,0,0,0,0.024338
2020/05/20 02:15:00.010,n,246,2.52,1.8,3.96,16.4,82.8,1022.42,0,0,0,0,0.022621
2020/05/20 02:16:00.000,n,256,4.68,1.8,6.12,16.4,82.8,1022.42,0,0,0,0,0.025215
2020/05/20 02:17:00.003,n,180,2.88,1.44,3.96,16.4,82.8,1022.42,0,0,0,0,0.023499
2020/05/20 02:18:00.000,n,152,1.08,0.36,3.24,16.4,83.1,1022.42,0,0,0,0,0.026093
2020/05/20 02:19:00.000,n,83,1.08,0.36,2.88,16.4,82.9,1022.42,0,0,0,0,0.019989
2020/05/20 02:20:00.000,n,259,2.16,2.16,3.24,16.4,83,1022.42,0,0,0,0,0.018272
2020/05/20 02:21:00.007,n,275,3.96,3.6,4.32,16.4,82.9,1022.42,0,0,0,0,0.030479
2020/05/20 02:22:00.000,n,297,3.24,2.88,3.96,16.4,83.1,1022.42,0,0,0,0,0.034866
2020/05/20 02:23:00.000,n,253,3.6,2.88,3.96,16.4,83.1,1022.52,0,0,0,0,0.033112
2020/05/20 02:24:00.012,n,44,0.72,0.36,1.44,16.4,83,1022.52,0,0,0,0,0.032272
2020/05/20 02:25:00.000,n,290,2.52,1.44,3.6,16.4,83.2,1022.52,0,0,0,0,0.033112
2020/05/20 02:26:00.000,n,216,2.88,2.52,3.6,16.4,82.9,1022.52,0,0,0,0,0.033989
2020/05/20 02:27:00.003,n,249,3.24,2.88,4.32,16.3,82.8,1022.42,0,0,0,0,0.027885
2020/05/20 02:28:00.000,n,278,1.44,0.72,2.88,16.3,83.4,1022.42,0,0,0,0,0.030479
2020/05/20 02:29:00.000,n,287,3.24,2.52,3.96,16.4,83.6,1022.42,0,0,0,0,0.027885
2020/05/20 02:30:00.010,n,281,4.32,3.96,4.68,16.4,82.9,1022.42,0,0,0,0,0.02964
2020/05/20 02:31:00.007,n,269,4.32,3.96,4.68,16.4,82.7,1022.42,0,0,0,0,0.032272
2020/05/20 02:32:00.004,n,247,3.24,2.88,3.6,16.3,82.7,1022.42,0,0,0,0,0.032272
2020/05/20 02:33:00.001,n,260,2.88,1.8,3.24,16.3,82.7,1022.42,0,0,0,0,0.030479
2020/05/20 02:34:00.000,n,272,1.8,1.44,2.16,16.3,82.7,1022.42,0,0,0,0,0.027885
2020/05/20 02:35:00.000,n,228,3.24,3.24,3.6,16.200002,82.7,1022.42,0,0,0,0,0.031395
2020/05/20 02:36:00.000,n,118,1.44,1.44,1.8,16.200002,82.8,1022.42,0,0,0,0,0.028763
2020/05/20 02:37:00.000,n,164,7.92,7.56,8.64,16.200002,82.9,1022.42,0,0,0,0,0.024414
2020/05/20 02:38:00.004,n,182,3.24,2.88,3.6,16.200002,82.9,1022.42,0,0,0,0,0.026131
2020/05/20 02:39:00.001,n,163,4.32,1.08,7.56,16.200002,82.9,1022.42,0,0,0,0,0.027885
2020/05/20 02:40:00.000,n,112,1.08,0.72,1.44,16.200002,82.9,1022.42,0,0,0,0,0.027885
2020/05/20 02:41:00.011,n,153,1.8,1.44,1.8,16.200002,82.9,1022.42,0,0,0,0,0.031395
2020/05/20 02:42:00.010,n,77,1.08,0.36,1.44,16.200002,82.9,1022.52,0,0,0,0,0.027885
2020/05/20 02:43:00.000,n,257,4.32,3.96,4.32,16.200002,82.9,1022.52,0,0,0,0,0.025291
2020/05/20 02:44:00.000,n,96,4.32,3.96,5.04,16.3,82.8,1022.52,0,0,0,0,0.030479
2020/05/20 02:45:00.002,n,330,0.36,0,0.36,16.3,82.8,1022.62,0,0,0,0,0.031395
2020/05/20 02:46:00.000,n,138,3.96,3.24,4.68,16.3,82.7,1022.62,0,0,0,0,0.028763
2020/05/20 02:47:00.000,n,135,6.12,5.76,6.48,16.200002,82.6,1022.62,0,0,0,0,0.02964
2020/05/20 02:48:00.010,n,149,2.16,1.08,3.24,16.200002,82.6,1022.52,0,0,0,0,0.025291
2020/05/20 02:49:00.007,n,173,2.52,2.16,3.24,16.200002,82.6,1022.52,0,0,0,0,0.021782
2020/05/20 02:50:00.004,n,148,1.44,1.08,1.8,16.200002,82.6,1022.52,0,0,0,0,0.027046
2020/05/20 02:51:00.002,n,169,4.68,3.96,5.76,16.200002,82.5,1022.52,0,0,0,0,0.028763
2020/05/20 02:52:00.000,n,148,1.44,1.08,1.8,16.200002,82.5,1022.52,0,0,0,0,0.027046
2020/05/20 02:53:00.000,n,141,3.6,1.8,4.68,16.1,82.6,1022.52,0,0,0,0,0.026131
2020/05/20 02:54:00.000,n,184,4.68,3.96,5.4,16.1,82.6,1022.42,0,0,0,0,0.027885
2020/05/20 02:55:00.000,n,188,6.84,6.48,7.2,16.1,82.6,1022.42,0,0,0,0,0.024414
2020/05/20 02:56:00.004,n,154,4.32,3.6,4.68,16.1,82.6,1022.42,0,0,0,0,0.026131
2020/05/20 02:57:00.001,n,184,3.24,2.88,3.96,16.1,82.6,1022.32,0,0,0,0,0.026131
2020/05/20 02:58:00.000,n,297,2.16,1.44,2.52,16.1,82.8,1022.22,0,0,0,0,0.027046
2020/05/20 02:59:00.013,n,141,0.72,0.36,1.08,16.1,82.9,1022.22,0,0,0,0,0.027885
2020/05/20 03:00:00.011,n,1,1.44,0.72,1.8,16.1,82.8,1022.22,0,0,0,0,0.028763
2020/05/20 03:01:00.000,n,156,1.08,0.36,2.16,16.1,82.9,1022.22,0,0,0,0,0.024414
2020/05/20 03:02:00.000,n,232,2.16,1.8,2.16,16.1,82.8,1022.32,0,0,0,0,0.027046
2020/05/20 03:03:00.002,n,196,1.8,1.8,1.8,16.1,82.7,1022.32,0,0,0,0,0.024414
2020/05/20 03:04:00.000,n,206,3.6,2.52,4.68,16.1,82.8,1022.32,0,0,0,0,0.020905
2020/05/20 03:05:00.000,n,264,2.52,2.16,3.24,16.1,82.8,1022.32,0,0,0,0,0.020065
2020/05/20 03:06:00.010,n,255,2.88,2.52,3.24,16,82.7,1022.32,0,0,0,0,0.024414
2020/05/20 03:07:00.007,n,191,1.44,1.08,1.8,16,82.8,1022.32,0,0,0,0,0.023537
2020/05/20 03:08:00.006,n,307,2.52,2.16,3.24,16,82.9,1022.32,0,0,0,0,0.022697
2020/05/20 03:09:00.002,n,214,1.08,0.36,1.44,16,83,1022.32,0,0,0,0,0.023537
2020/05/20 03:10:00.000,n,204,3.24,2.52,3.96,16,82.9,1022.32,0,0,0,0,0.031357
2020/05/20 03:11:00.000,n,265,1.08,0.72,1.08,16,82.9,1022.32,0,0,0,0,0.030479
2020/05/20 03:12:00.000,n,241,1.44,0.72,1.8,16,82.9,1022.32,0,0,0,0,0.033989
2020/05/20 03:13:00.005,n,57,1.44,0.72,2.16,16,83.2,1022.32,0,0,0,0,0.035706
2020/05/20 03:14:00.002,n,255,2.52,2.16,3.24,16,83.1,1022.42,0,0,0,0,0.027847
2020/05/20 03:15:00.000,n,251,2.16,1.44,2.88,16,83.2,1022.42,0,0,0,0,0.03746
2020/05/20 03:16:00.000,n,308,1.08,0,2.88,16.1,83.3,1022.42,0,0,0,0,0.033989
2020/05/20 03:17:00.010,n,275,0.36,0.36,0.72,16.1,83.1,1022.42,0,0,0,0,0.031357
2020/05/20 03:18:00.007,n,222,1.08,0.36,1.44,16.1,83.1,1022.42,0,0,0,0,0.034828
2020/05/20 03:19:00.000,n,281,3.24,2.88,3.6,16.1,83.5,1022.42,0,0,0,0,0.035706
2020/05/20 03:20:00.000,n,238,5.4,5.04,5.76,16.1,83,1022.42,0,0,0,0,0.028763
2020/05/20 03:21:00.000,n,270,3.96,3.96,4.68,16.1,83.1,1022.42,0,0,0,0,0.034828
2020/05/20 03:22:00.000,n,259,4.32,3.96,5.04,16.1,83,1022.42,0,0,0,0,0.033112
2020/05/20 03:23:00.007,n,204,2.52,1.8,2.88,16.1,83.3,1022.42,0,0,0,0,0.035706
2020/05/20 03:24:00.004,n,281,5.4,5.04,6.12,16.1,83.2,1022.32,0,0,0,0,0.033989
2020/05/20 03:25:00.002,n,246,1.08,0.36,1.8,16.1,83,1022.32,0,0,0,0,0.033989
2020/05/20 03:26:00.000,n,273,3.6,2.88,3.96,16.1,82.8,1022.32,0,0,0,0,0.033989
2020/05/20 03:27:00.013,n,255,5.76,5.4,6.12,16,82.7,1022.22,0,0,0,0,0.035706
2020/05/20 03:28:00.000,n,278,3.96,2.88,5.04,16,83,1022.22,0,0,0,0,0.030479
2020/05/20 03:29:00.000,n,284,5.4,4.68,6.12,16,83,1022.22,0,0,0,0,0.033112
2020/05/20 03:30:00.003,n,276,4.32,3.6,4.68,16.1,82.9,1022.22,0,0,0,0,0.033112
2020/05/20 03:31:00.001,n,241,3.24,2.88,3.24,16.1,82.8,1022.12,0,0,0,0,0.031357
2020/05/20 03:32:00.000,n,250,2.88,2.52,3.24,16,82.8,1022.12,0,0,0,0,0.033112
2020/05/20 03:33:00.000,n,289,3.24,2.16,4.32,16,82.9,1022.12,0,0,0,0,0.034828
2020/05/20 03:34:00.007,n,13,1.08,0.72,1.44,16,82.8,1022.12,0,0,0,0,0.03746
2020/05/20 03:35:00.005,n,260,3.96,3.24,4.32,16,82.9,1022.12,0,0,0,0,0.033112
2020/05/20 03:36:00.002,n,254,3.24,2.52,3.96,16,82.7,1022.12,0,0,0,0,0.036583
2020/05/20 03:37:00.000,n,252,2.88,2.52,3.6,16,83.5,1022.12,0,0,0,0,0.036583
2020/05/20 03:38:00.000,n,264,1.8,1.8,1.8,16.1,83.6,1022.12,0,0,0,0,0.036583
2020/05/20 03:39:00.000,n,273,5.76,4.32,6.48,16.1,82.6,1022.12,0,0,0,0,0.038338
2020/05/20 03:40:00.000,n,277,5.76,5.04,5.76,16.1,82.4,1022.22,0,0,0,0,0.039215
2020/05/20 03:41:00.004,n,233,3.24,2.88,3.96,16.1,82.7,1022.22,0,0,0,0,0.03746
2020/05/20 03:42:00.002,n,271,4.68,4.32,5.76,16,82.5,1022.22,0,0,0,0,0.036583
2020/05/20 03:43:00.000,n,242,4.68,4.68,5.4,16,82.3,1022.22,0,0,0,0,0.034828
2020/05/20 03:44:00.012,n,261,6.48,5.76,7.2,15.9,82.3,1022.32,0,0,0,0,0.035706
2020/05/20 03:45:00.010,n,295,4.68,3.24,6.12,15.9,82.4,1022.32,0,0,0,0,0.039215
2020/05/20 03:46:00.000,n,256,5.04,3.96,6.48,15.9,82.6,1022.32,0,0,0,0,0.038338
2020/05/20 03:47:00.000,n,264,2.52,1.44,2.88,15.9,82.8,1022.42,0,0,0,0,0.03746
2020/05/20 03:48:00.000,n,119,1.8,1.44,2.16,15.9,82.8,1022.42,0,0,0,0,0.039215
2020/05/20 03:49:00.000,n,194,1.44,0.72,2.16,16,83.2,1022.42,0,0,0,0,0.036583
2020/05/20 03:50:00.000,n,307,1.44,0.36,1.8,16,83,1022.42,0,0,0,0,0.036583
2020/05/20 03:51:00.009,n,202,1.8,0.36,3.24,16,82.9,1022.52,0,0,0,0,0.033989
2020/05/20 03:52:00.007,n,26,2.52,1.44,3.6,16,83.2,1022.52,0,0,0,0,0.038338
2020/05/20 03:53:00.003,n,266,2.52,2.16,2.88,16.1,82.9,1022.52,0,0,0,0,0.03746
2020/05/20 03:54:00.002,n,258,1.44,1.08,1.8,16.1,82.8,1022.52,0,0,0,0,0.034828
2020/05/20 03:55:00.000,n,165,1.44,0.72,1.8,16.1,82.8,1022.52,0,0,0,0,0.036583
2020/05/20 03:56:00.000,n,52,0.36,0.36,1.08,16,82.7,1022.52,0,0,0,0,0.040054
2020/05/20 03:57:00.000,n,159,3.96,3.24,4.68,16.1,82.8,1022.42,0,0,0,0,0.038338
2020/05/20 03:58:00.007,n,273,2.16,1.8,3.6,16.1,82.8,1022.42,0,0,0,0,0.03746
2020/05/20 03:59:00.004,n,189,3.24,2.88,3.96,16.1,82.8,1022.42,0,0,0,0,0.035706
2020/05/20 04:00:00.001,n,225,3.6,2.52,4.32,16.1,82.7,1022.42,0,0,0,0,0.043564
2020/05/20 04:01:00.000,n,204,1.8,1.08,2.16,16.1,82.7,1022.42,0,0,0,0,0.035706
2020/05/20 04:02:00.011,n,353,1.44,0,3.24,16.1,82.8,1022.42,0,0,0,0,0.040932
2020/05/20 04:03:00.009,n,237,1.8,1.44,2.16,16.1,82.7,1022.32,0,0,0,0,0.040054
2020/05/20 04:04:00.000,n,311,3.24,2.16,3.96,16.200002,83.1,1022.32,0,0,0,0,0.041809
2020/05/20 04:05:00.002,n,195,1.08,0.72,1.8,16.200002,82.8,1022.32,0,0,0,0,0.040932
2020/05/20 04:06:00.000,n,278,3.6,2.88,4.32,16.200002,82.5,1022.22,0,0,0,0,0.038338
2020/05/20 04:07:00.000,n,241,0.72,0.72,1.08,16.200002,82.5,1022.22,0,0,0,0,0.03746
2020/05/20 04:08:00.000,n,159,2.88,2.16,3.24,16.200002,82.6,1022.22,0,0,0,0,0.041809
2020/05/20 04:09:00.007,n,141,1.08,0.36,1.8,16.200002,82.5,1022.22,0,0,0,0,0.03746
2020/05/20 04:10:00.004,n,166,6.84,5.04,10.8,16.200002,82.4,1022.22,0,0,0,0,0.03746
2020/05/20 04:11:00.001,n,325,2.88,2.16,3.24,16.200002,82.7,1022.22,0,0,0,0,0.035706
2020/05/20 04:12:00.015,n,202,3.6,1.8,5.04,16.200002,82.7,1022.22,0,0,0,0,0.040932
2020/05/20 04:13:00.000,n,212,2.16,0.72,5.04,16.200002,82.4,1022.32,0,0,0,0,0.041809
2020/05/20 04:14:00.000,n,221,0.72,0.36,1.44,16.200002,82.2,1022.32,0,0,0,0,0.035706
2020/05/20 04:15:00.000,n,212,0.72,0.36,1.44,16.200002,82.2,1022.32,0,0,0,0,0.041809
2020/05/20 04:16:00.003,n,146,1.44,1.08,2.16,16.200002,82.2,1022.32,0,0,0,0,0.040054
2020/05/20 04:17:00.000,n,154,5.4,5.04,5.76,16.200002,82.2,1022.32,0,0,0,0,0.039215
2020/05/20 04:18:00.000,n,144,4.32,2.88,5.76,16.200002,82,1022.22,0,0,0,0,0.040932
2020/05/20 04:19:00.010,n,133,5.04,4.68,5.76,16.200002,82,1022.22,0,0,0,0,0.043564
2020/05/20 04:20:00.007,n,160,7.92,6.48,9,16.200002,82,1022.22,0,0,0,0,0.038338
2020/05/20 04:21:00.004,n,142,2.88,2.88,3.6,16.1,82,1022.12,0,0,0,0,0.038338
2020/05/20 04:22:00.002,n,136,5.4,5.04,5.76,16.1,82.2,1022.12,0,0,0,0,0.040054
2020/05/20 04:23:00.000,n,148,3.6,3.6,4.32,16.1,82.3,1022.12,0,0,0,0,0.040054
2020/05/20 04:24:00.000,n,208,3.24,2.16,3.96,16.1,82.3,1022.02,0,0,0,0,0.042686
2020/05/20 04:25:00.000,n,168,3.6,2.52,3.96,16.1,82.3,1022.02,0,0,0,0,0.043564
2020/05/20 04:26:00.006,n,170,4.32,3.6,4.68,16.1,82.3,1022.02,0,0,0,0,0.041809
2020/05/20 04:27:00.003,n,153,2.16,1.8,2.52,16.1,82.4,1022.02,0,0,0,0,0.043564
2020/05/20 04:28:00.000,n,187,5.04,4.68,5.4,16.1,82.5,1022.02,0,0,0,0,0.040932
2020/05/20 04:29:00.013,n,176,5.4,5.04,5.76,16.1,82.5,1022.02,0,0,0,0,0.042686
2020/05/20 04:30:00.011,n,184,3.6,3.24,3.96,16.1,82.5,1022.02,0,0,0,0,0.040054
2020/05/20 04:31:00.000,n,173,3.24,2.88,3.6,16.1,82.5,1022.02,0,0,0,0,0.041809
2020/05/20 04:32:00.000,n,70,0.36,0.36,0.72,16.1,82.5,1022.02,0,0,0,0,0.042686
2020/05/20 04:33:00.003,n,176,1.8,1.44,1.8,16.1,82.6,1022.02,0,0,0,0,0.038338
2020/05/20 04:34:00.000,n,283,1.8,1.44,2.52,16.1,82.6,1022.02,0,0,0,0,0.043564
2020/05/20 04:35:00.000,n,262,1.44,1.08,1.8,16.1,82.9,1022.02,0,0,0,0,0.039215
2020/05/20 04:36:00.010,n,165,1.08,0.72,1.08,16.1,82.7,1022.02,0,0,0,0,0.040932
2020/05/20 04:37:00.007,n,14,0.72,0.36,1.44,16.1,82.7,1022.12,0,0,0,0,0.043564
2020/05/20 04:38:00.005,n,207,1.08,0.36,1.08,16.1,82.6,1022.12,0,0,0,0,0.044403
2020/05/20 04:39:00.002,n,76,1.44,1.08,1.44,16.1,82.6,1022.12,0,0,0,0,0.043564
2020/05/20 04:40:00.000,n,279,5.04,4.68,5.04,16.1,82.7,1022.12,0,0,0,0,0.040054
2020/05/20 04:41:00.000,n,303,0.72,0.36,1.08,16.1,82.6,1022.22,0,0,0,0,0.039215
2020/05/20 04:42:00.000,n,252,3.96,3.6,4.32,16.1,82.5,1022.22,0,0,0,0,0.043564
2020/05/20 04:43:00.000,n,249,5.4,5.04,5.76,16.1,82.3,1022.22,0,0,0,0,0.039215
2020/05/20 04:44:00.005,n,244,4.32,3.6,4.68,16.1,82.2,1022.22,0,0,0,0,0.039215
2020/05/20 04:45:00.003,n,298,1.08,0,1.44,16.1,82.3,1022.22,0,0,0,0,0.043564
2020/05/20 04:46:00.000,n,248,4.32,2.88,5.4,16.1,82.2,1022.22,0,0,0,0,0.04528
2020/05/20 04:47:00.013,n,261,3.6,3.6,3.96,16.1,82.3,1022.22,0,0,0,0,0.041809
2020/05/20 04:48:00.010,n,285,1.44,0.72,2.16,16.1,82.3,1022.22,0,0,0,0,0.041809
2020/05/20 04:49:00.000,n,297,0.72,0.36,1.08,16.1,82.7,1022.22,0,0,0,0,0.042686
2020/05/20 04:50:00.000,n,348,0.36,0,0.72,16.1,82.7,1022.22,0,0,0,0,0.03746
2020/05/20 04:51:00.002,n,157,0.36,0,1.08,16.1,82.6,1022.22,0,0,0,0,0.040054
2020/05/20 04:52:00.000,n,156,3.96,3.96,4.32,16.1,82.4,1022.22,0,0,0,0,0.043564
2020/05/20 04:53:00.000,n,141,2.16,1.8,2.52,16.1,82.2,1022.22,0,0,0,0,0.042686